| time (UTC) | temp C | wind direction | speed KPH | gust KPH | rain 1hr cm | rain 24hr cm | rain mn cm | humidity % | barometer mb |
| 20260507051614 | 13 | 330 | 14.5 | 40.2 | 0.00 | 0.00 | 0.00 | 85 | 1009.0 |
| 20260507045613 | 13 | 330 | 14.5 | 40.2 | 0.00 | 0.00 | 0.00 | 85 | 1009.0 |
| 20260507043609 | 13 | 330 | 14.5 | 40.2 | 0.00 | 0.00 | 0.00 | 85 | 1009.0 |
| 20260507041607 | 13 | 330 | 14.5 | 40.2 | 0.00 | 0.00 | 0.00 | 85 | 1010.0 |
| 20260507035606 | 13 | 330 | 14.5 | 40.2 | 0.00 | 0.00 | 0.00 | 85 | 1010.0 |
| 20260507033604 | 13 | 330 | 14.5 | 40.2 | 0.00 | 0.00 | 0.00 | 85 | 1010.0 |
| 20260507031603 | 13 | 330 | 14.5 | 40.2 | 0.00 | 0.00 | 0.00 | 85 | 1010.0 |
| 20260507025602 | 13 | 330 | 14.5 | 40.2 | 0.00 | 0.00 | 0.00 | 85 | 1010.0 |
| 20260507023601 | 13 | 330 | 14.5 | 40.2 | 0.00 | 0.00 | 0.00 | 85 | 1010.0 |
| 20260507021601 | 13 | 330 | 14.5 | 40.2 | 0.00 | 0.00 | 0.00 | 85 | 1010.0 |
| 20260507015601 | 13 | 330 | 14.5 | 40.2 | 0.00 | 0.00 | 0.00 | 85 | 1010.0 |
| 20260507013600 | 13 | 330 | 14.5 | 40.2 | 0.00 | 0.00 | 0.00 | 85 | 1011.0 |
| 20260507011600 | 13 | 330 | 14.5 | 40.2 | 0.00 | 0.00 | 0.00 | 85 | 1011.0 |
| 20260507005600 | 13 | 330 | 14.5 | 40.2 | 0.00 | 0.00 | 0.00 | 85 | 1011.0 |
| 20260507003559 | 13 | 330 | 14.5 | 40.2 | 0.00 | 0.00 | 0.00 | 85 | 1011.0 |
| 20260507001558 | 13 | 330 | 14.5 | 40.2 | 0.00 | 0.00 | 0.00 | 85 | 1011.0 |
| 20260506235558 | 13 | 330 | 14.5 | 40.2 | 0.00 | 0.00 | 0.00 | 85 | 1011.0 |
| 20260506233557 | 13 | 330 | 14.5 | 40.2 | 0.00 | 0.00 | 0.00 | 85 | 1011.0 |
| 20260506231556 | 13 | 330 | 14.5 | 40.2 | 0.00 | 0.00 | 0.00 | 85 | 1011.0 |
| 20260506225555 | 13 | 330 | 14.5 | 40.2 | 0.00 | 0.00 | 0.00 | 85 | 1011.0 |
| 20260506223555 | 13 | 328 | 16.1 | 41.8 | 0.00 | 0.00 | 0.00 | 84 | 1011.0 |
| 20260506221555 | 13 | 328 | 16.1 | 41.8 | 0.00 | 0.00 | 0.00 | 84 | 1012.0 |
| 20260506215554 | 13 | 328 | 16.1 | 41.8 | 0.00 | 0.00 | 0.00 | 84 | 1012.0 |
| 20260506213553 | 14 | 328 | 16.1 | 38.6 | 0.00 | 0.00 | 0.00 | 80 | 1012.0 |
| 20260506211552 | 14 | 328 | 16.1 | 38.6 | 0.00 | 0.00 | 0.00 | 80 | 1012.0 |
| 20260506205550 | 15 | 328 | 16.1 | 38.6 | 0.00 | 0.00 | 0.00 | 80 | 1012.0 |
| 20260506203549 | 15 | 328 | 16.1 | 38.6 | 0.00 | 0.00 | 0.00 | 80 | 1012.0 |
| 20260506201549 | 16 | 322 | 17.7 | 37.0 | 0.00 | 0.00 | 0.00 | 73 | 1011.0 |
| 20260506195547 | 16 | 322 | 17.7 | 37.0 | 0.00 | 0.00 | 0.00 | 73 | 1011.0 |
| 20260506193547 | 17 | 318 | 17.7 | 33.8 | 0.00 | 0.00 | 0.00 | 64 | 1011.0 |
| 20260506191546 | 17 | 318 | 17.7 | 33.8 | 0.00 | 0.00 | 0.00 | 64 | 1011.0 |
| 20260506185546 | 17 | 318 | 17.7 | 33.8 | 0.00 | 0.00 | 0.00 | 64 | 1011.0 |
| 20260506183546 | 18 | 322 | 19.3 | 24.1 | 0.00 | 0.00 | 0.00 | 55 | 1011.0 |
| 20260506181545 | 18 | 322 | 19.3 | 24.1 | 0.00 | 0.00 | 0.00 | 55 | 1011.0 |
| 20260506175544 | 18 | 322 | 19.3 | 24.1 | 0.00 | 0.00 | 0.00 | 55 | 1011.0 |
| 20260506173544 | 21 | 324 | 11.3 | 11.3 | 0.00 | 0.00 | 0.00 | 38 | 1011.0 |
| 20260506171541 | 21 | 324 | 11.3 | 11.3 | 0.00 | 0.00 | 0.00 | 38 | 1011.0 |
| 20260506165540 | 21 | 324 | 11.3 | 11.3 | 0.00 | 0.00 | 0.00 | 38 | 1011.0 |
| 20260506163538 | 21 | 324 | 11.3 | 11.3 | 0.00 | 0.00 | 0.00 | 38 | 1011.0 |
| 20260506161538 | 21 | 324 | 11.3 | 11.3 | 0.00 | 0.00 | 0.00 | 38 | 1011.0 |
| 20260506155538 | 21 | 324 | 11.3 | 11.3 | 0.00 | 0.00 | 0.00 | 38 | 1011.0 |
| 20260506153538 | 21 | 324 | 11.3 | 11.3 | 0.00 | 0.00 | 0.00 | 38 | 1011.0 |
| 20260506151537 | 21 | 324 | 11.3 | 11.3 | 0.00 | 0.00 | 0.00 | 38 | 1011.0 |
| 20260506145537 | 21 | 324 | 11.3 | 11.3 | 0.00 | 0.00 | 0.00 | 38 | 1011.0 |
| 20260506143536 | 21 | 324 | 11.3 | 11.3 | 0.00 | 0.00 | 0.00 | 38 | 1011.0 |
| 20260506141534 | 21 | 324 | 11.3 | 11.3 | 0.00 | 0.00 | 0.00 | 38 | 1011.0 |
| 20260506135534 | 21 | 324 | 11.3 | 11.3 | 0.00 | 0.00 | 0.00 | 38 | 1011.0 |
| 20260506133533 | 21 | 324 | 11.3 | 11.3 | 0.00 | 0.00 | 0.00 | 38 | 1012.0 |
| 20260506131531 | 21 | 324 | 11.3 | 11.3 | 0.00 | 0.00 | 0.00 | 38 | 1012.0 |
| 20260506125531 | 21 | 324 | 11.3 | 11.3 | 0.00 | 0.00 | 0.00 | 38 | 1012.0 |
| 20260506123529 | 21 | 324 | 11.3 | 11.3 | 0.00 | 0.00 | 0.00 | 38 | 1012.0 |
| 20260506121528 | 21 | 324 | 11.3 | 11.3 | 0.00 | 0.00 | 0.00 | 38 | 1012.0 |
| 20260506115526 | 21 | 324 | 11.3 | 11.3 | 0.00 | 0.00 | 0.00 | 38 | 1012.0 |
| 20260506113525 | 18 | 346 | 11.3 | 11.3 | 0.00 | 0.00 | 0.00 | 54 | 1012.0 |
| 20260506111524 | 18 | 346 | 11.3 | 11.3 | 0.00 | 0.00 | 0.00 | 54 | 1013.0 |
| 20260506105522 | 18 | 346 | 11.3 | 11.3 | 0.00 | 0.00 | 0.00 | 54 | 1013.0 |
| 20260506103521 | 18 | 346 | 11.3 | 11.3 | 0.00 | 0.00 | 0.00 | 54 | 1014.0 |
| 20260506101511 | 18 | 346 | 11.3 | 11.3 | 0.00 | 0.00 | 0.00 | 54 | 1014.0 |
| 20260506095510 | 18 | 346 | 11.3 | 11.3 | 0.00 | 0.00 | 0.00 | 54 | 1014.0 |
| 20260506093509 | 16 | 344 | 12.9 | 14.5 | 0.00 | 0.00 | 0.00 | 73 | 1014.0 |
| 20260506091508 | 16 | 344 | 12.9 | 14.5 | 0.00 | 0.00 | 0.00 | 73 | 1014.0 |
| 20260506085506 | 16 | 344 | 12.9 | 14.5 | 0.00 | 0.00 | 0.00 | 73 | 1014.0 |
| 20260506083504 | 13 | 348 | 12.9 | 20.9 | 0.00 | 0.00 | 0.00 | 82 | 1014.0 |
| 20260506081501 | 13 | 348 | 12.9 | 20.9 | 0.00 | 0.00 | 0.00 | 82 | 1014.0 |
| 20260506073459 | 11 | 334 | 9.7 | 29.0 | 0.00 | 0.00 | 0.00 | 93 | 1014.0 |
| 20260506071457 | 11 | 334 | 9.7 | 29.0 | 0.00 | 0.00 | 0.00 | 93 | 1014.0 |
| 20260506061454 | 11 | 334 | 9.7 | 29.0 | 0.00 | 0.00 | 0.00 | 93 | 1014.0 |